Weather Roundup
Issued by NWS Corpus Christi, TX

Home | Current Version | Previous Version | Text Only | Print | Product List | Glossary On
Versions: 1 2 3 4 5 6 7 8 9 10 11 12 13 14 15 16 17 18 19 20 21 22 23 24 25 26 27 28 29 30 31 32 33 34 35 36 37 38 39 40 41 42 43 44 45 46 47 48 49 50
124
ASUS44 KCRP 240210
HRRCRP

SOUTH TEXAS REGIONAL WEATHER ROUNDUP
NATIONAL WEATHER SERVICE CORPUS CHRISTI TX
800 PM CST FRI FEB 23 2018


TXZ229>244-240300-
...CORPUS CHRISTI AREA OBSERVATIONS...

CITY           SKY/WX    TMP DP  RH WIND       PRES   REMARKS
CORPUS CHRISTI CLOUDY    71  71 100 SE21G29   29.98R
NAS CORPUS CHR CLOUDY    70  70 100 SE14      29.98S FOG
ROCKPORT       CLOUDY    70  68  93 SE13      30.00S FOG
KINGSVILLE ARP FAIR      71  71  99 E10       29.96R
KINGSVILLE NAS PTCLDY    71  69  93 SE16G24   29.96S
ALICE          CLOUDY    70  67  90 SE13      29.96R
$$

...VICTORIA AREA OBSERVATIONS...

CITY           SKY/WX    TMP DP  RH WIND       PRES   REMARKS
PORT LAVACA    CLOUDY    69  67  94 SE12      30.02S FOG
VICTORIA       CLOUDY    70  67  90 SE13      30.01S
BEEVILLE       CLOUDY    71  68  90 SE14      29.98S
PLEASANTON     MOCLDY    71  65  83 S12       29.98S
SAN ANTONIO    CLOUDY    66  64  93 E3        29.99S
$$

...LAREDO AREA OBSERVATIONS...

CITY           SKY/WX    TMP DP  RH WIND       PRES   REMARKS
LAREDO         FOG       64  63  94 N7        29.96R VSB 1/2
COTULLA        MOCLDY    61  61 100 N3        29.96S FOG
DEL RIO        CLOUDY    60  58  92 SE8       29.98S
MCALLEN        CLEAR     76  68  76 SE17      29.95R
HEBBRONVILLE   PTCLDY    70  64  82 SE6       29.95S HAZE
$$

...OTHER TEXAS OBSERVATIONS...

CITY           SKY/WX    TMP DP  RH WIND       PRES   REMARKS
BROWNSVILLE    MOCLDY    75  72  90 SE18      29.97S
HOUSTON        MOCLDY    72  69  90 SE13      30.05R
COL. STATION   CLEAR     67  63  87 S5        30.02R
AUSTIN         CLOUDY    61  61 100 NW3       30.00S
WACO           CLOUDY    55  54  96 N5        30.03R FOG
FORT WORTH     DRIZZLE   49  47  93 NW7       30.04R FOG
WICHITA FALLS  CLOUDY    38  37  97 NE3       30.06F FOG
LUBBOCK        DRZL/FOG  41  41 100 SE14      29.95S VSB 3/4
EL PASO        CLEAR     63   7  11 SW17G24   29.91S
$$

...MARINE OBSERVATIONS...

STATION/POSITION TIME  SKY/WX   TEMP    WIND        PRES    VSBY  WAVE   SWELL
                                AIR SEA DIR/SP/G                  HT/PER HT/PER
                 (UTC)          (F)     (DEG/KT/KT) (MB)    (MI)  (FT/S) (FT/S)
PORT ARANSAS     NOT AVBL
BUOY 90 E PORT A 0150            74 74  120/ 14/ 16 1017.1S         4/ 8   2/ 8
BUOY 200 E PT IS 0150            74 74  140/ 14/ 16 1018.7R         5/ 7
BUOY 15 E GALVES 0050            65 63  110/  6/  8 1018.4          2/ 8   2/ 8
$$




USA.gov is the U.S. government's official web portal to all federal, state and local government web resources and services.